Weather History for Dublin, VA

Change the Weather History Date:

Saturday, December 8, 2012

  Actual Average (KBCB) Record (KBCB)
Temperature  
Mean Temperature 48 °F 35 °F  
Max Temperature 62 °F 46 °F 72 °F (1998)
Min Temperature 35 °F 25 °F 2 °F (1995)
Degree Days  
Heating Degree Days 16 30  
Month to date heating degree days 228  
Since 1 July heating degree days 1408  
Cooling Degree Days 0 0  
Month to date cooling degree days 0  
Year to date cooling degree days 573  
Moisture  
Dew Point 46 °F    
Average Humidity 89    
Maximum Humidity 100    
Minimum Humidity 59    
Precipitation  
Precipitation 0.00 in 0.10 in 1.03 in (1957)
Month to date precipitation 0.82  
Year to date precipitation 38.76  
Snow  
Snow 0.00 in - - ()
Month to date snowfall  
Since 1 July snowfall  
Snow Depth -    
Sea Level Pressure  
Sea Level Pressure 30.01 in    
Wind  
Wind Speed 3 mph (SW)    
Max Wind Speed 16 mph    
Max Gust Speed 18 mph    
Visibility 8 miles    
Events      
T = Trace of Precipitation, MM = Missing Value Source: NWS Daily Summary

Daily Weather History Graph

Daily Weather History Graph

Search for Another Location

Airport:

Trip Planner

Search our weather history database for the weather conditions in past years. The results will help you decide how hot, cold, wet, or windy it might be!

Date:

Astronomy

Dec. 08, 2012 Rise Set
Actual Time 7:24 AM EST 5:05 PM EST
Civil Twilight 6:55 AM EST 5:34 PM EST
Nautical Twilight 6:22 AM EST 6:06 PM EST
Astronomical Twilight 5:51 AM EST 6:38 PM EST
Moon 1:53 AM EST (12/8) 1:29 PM EST (12/8)
Length of Visible Light 10h 39m
Length of Day
9h 41m
Waning Crescent, 28% of the Moon is Illuminated
Dec 8
Waning Crescent
Dec 13
New
Dec 20
First Quarter
Dec 28
Full
Jan 4
Last Quarter

Hourly Weather History & Observations

Time (EST) Temp. Windchill Dew Point Humidity Pressure Visibility Wind Dir Wind Speed Gust Speed Precip Events Conditions
12:15 AM 39.2 °F - 39.2 °F 100% 30.01 in - Calm Calm - N/A   Unknown
12:35 AM 39.2 °F - 39.2 °F 100% 30.00 in - Calm Calm - N/A   Unknown
12:55 AM 37.4 °F - 37.4 °F 100% 30.00 in - Calm Calm - N/A   Unknown
1:15 AM 37.4 °F - 37.4 °F 100% 30.00 in - Calm Calm - N/A   Unknown
1:35 AM 39.2 °F - 39.2 °F 100% 29.99 in 2.0 mi Calm Calm - N/A   Mist
1:55 AM 39.2 °F - 39.2 °F 100% 29.99 in 3.0 mi Calm Calm - N/A   Clear
2:15 AM 39.2 °F - 39.2 °F 100% 29.99 in 3.0 mi Calm Calm - N/A   Clear
2:35 AM 39.2 °F - 39.2 °F 100% 29.99 in 5.0 mi Calm Calm - N/A   Clear
2:55 AM 37.4 °F - 37.4 °F 100% 29.99 in - Calm Calm - N/A   Unknown
3:15 AM 35.6 °F - 35.6 °F 100% 29.99 in - Calm Calm - N/A   Unknown
3:35 AM 37.4 °F - 37.4 °F 100% 29.98 in - Calm Calm - N/A   Unknown
3:55 AM 39.2 °F - 39.2 °F 100% 29.98 in - Calm Calm - N/A   Unknown
4:15 AM - - - N/A% 29.98 in - Calm Calm - N/A   Unknown
4:35 AM 39.2 °F - 39.2 °F 100% 29.99 in - Calm Calm - N/A   Mostly Cloudy
4:55 AM 39.2 °F - 39.2 °F 100% 29.99 in - Calm Calm - N/A   Unknown
5:15 AM 39.2 °F 35.9 °F 39.2 °F 100% 29.99 in 4.0 mi SSW 4.6 mph - N/A   Clear
5:35 AM 37.4 °F - 37.4 °F 100% 29.99 in 3.0 mi Calm Calm - N/A   Clear
6:15 AM 39.2 °F - 39.2 °F 100% 30.00 in 7.0 mi Calm Calm - N/A   Clear
6:35 AM 39.2 °F - 39.2 °F 100% 30.00 in 5.0 mi Calm Calm - N/A   Clear
6:55 AM 37.4 °F - 37.4 °F 100% 30.01 in 5.0 mi Calm Calm - N/A   Clear
7:15 AM 37.4 °F - 37.4 °F 100% 30.01 in 4.0 mi Calm Calm - N/A   Scattered Clouds
7:35 AM 39.2 °F 37.0 °F 39.2 °F 100% 30.01 in 5.0 mi SSW 3.5 mph - N/A   Clear
7:55 AM 41.0 °F - 41.0 °F 100% 30.01 in 3.0 mi Calm Calm - N/A   Clear
8:15 AM 42.8 °F 41.1 °F 42.8 °F 100% 30.02 in 4.0 mi WSW 3.5 mph - N/A   Clear
8:35 AM 39.2 °F - 39.2 °F 100% 30.02 in 2.5 mi Calm Calm - N/A   Scattered Clouds
8:55 AM 41.0 °F 39.0 °F 41.0 °F 100% 30.03 in 4.0 mi West 3.5 mph - N/A   Mostly Cloudy
9:15 AM 44.6 °F - 44.6 °F 100% 30.03 in 4.0 mi Calm Calm - N/A   Overcast
9:35 AM 46.4 °F - 46.4 °F 100% 30.03 in 5.0 mi Calm Calm - N/A   Overcast
9:55 AM 48.2 °F - 48.2 °F 100% 30.03 in 7.0 mi Calm Calm - N/A   Scattered Clouds
10:15 AM 53.6 °F - 53.6 °F 100% 30.03 in 7.0 mi WSW 5.8 mph - N/A   Clear
10:35 AM 53.6 °F - 53.6 °F 100% 30.03 in 7.0 mi WSW 8.1 mph - N/A   Clear
10:55 AM 55.4 °F - 55.4 °F 100% 30.02 in 7.0 mi WSW 8.1 mph - N/A   Scattered Clouds
11:15 AM 55.4 °F - 53.6 °F 94% 30.01 in 7.0 mi SW 8.1 mph - N/A   Scattered Clouds
11:35 AM 57.2 °F - 53.6 °F 88% 30.01 in 10.0 mi WSW 9.2 mph - N/A   Clear
11:55 AM 59.0 °F - 53.6 °F 82% 30.00 in 10.0 mi SW 11.5 mph - N/A   Scattered Clouds
12:15 PM 60.8 °F - 53.6 °F 77% 29.99 in 10.0 mi SW 11.5 mph - N/A   Scattered Clouds
12:35 PM 60.8 °F - 53.6 °F 77% 29.98 in 10.0 mi SW 12.7 mph - N/A   Scattered Clouds
12:55 PM 60.8 °F - 51.8 °F 72% 29.98 in 10.0 mi SW 11.5 mph - N/A   Clear
1:15 PM 60.8 °F - 51.8 °F 72% 29.98 in 10.0 mi SW 12.7 mph - N/A   Scattered Clouds
1:35 PM 60.8 °F - 51.8 °F 72% 29.98 in 10.0 mi WSW 16.1 mph - N/A   Mostly Cloudy
1:55 PM 62.6 °F - 51.8 °F 68% 29.97 in 10.0 mi WSW 12.7 mph 18.4 mph N/A   Scattered Clouds
2:15 PM 62.6 °F - 51.8 °F 68% 29.98 in 10.0 mi WSW 12.7 mph - N/A   Clear
2:35 PM 62.6 °F - 51.8 °F 68% 29.97 in 10.0 mi WSW 9.2 mph 17.3 mph N/A   Clear
2:55 PM 62.6 °F - 51.8 °F 68% 29.98 in 10.0 mi SSW 6.9 mph - N/A   Clear
3:35 PM 62.6 °F - 50.0 °F 63% 29.98 in 10.0 mi WSW 12.7 mph 16.1 mph N/A   Clear
3:55 PM 62.6 °F - 48.2 °F 59% 29.99 in 10.0 mi WSW 11.5 mph 16.1 mph N/A   Clear
4:15 PM 62.6 °F - 48.2 °F 59% 29.99 in 10.0 mi West 9.2 mph - N/A   Clear
4:35 PM 60.8 °F - 48.2 °F 63% 29.99 in 10.0 mi West 6.9 mph - N/A   Scattered Clouds
4:55 PM 60.8 °F - 48.2 °F 63% 29.99 in 10.0 mi WSW 5.8 mph - N/A   Scattered Clouds
5:15 PM 57.2 °F - 48.2 °F 72% 30.00 in 10.0 mi SW 3.5 mph - N/A   Mostly Cloudy
5:35 PM 57.2 °F - 48.2 °F 72% 30.00 in 10.0 mi SSW 3.5 mph - N/A   Mostly Cloudy
5:55 PM 57.2 °F - 48.2 °F 72% 30.01 in 10.0 mi SW 4.6 mph - N/A   Overcast
6:15 PM 57.2 °F - 48.2 °F 72% 30.01 in 10.0 mi WSW 5.8 mph - N/A   Overcast
6:35 PM 57.2 °F - 48.2 °F 72% 30.02 in 10.0 mi Calm Calm - N/A   Overcast
6:55 PM 57.2 °F - 48.2 °F 72% 30.02 in 10.0 mi WSW 4.6 mph - N/A   Overcast
7:15 PM 53.6 °F - 48.2 °F 82% 30.02 in 10.0 mi SSW 6.9 mph - N/A   Mostly Cloudy
7:35 PM 53.6 °F - 48.2 °F 82% 30.03 in 10.0 mi SW 4.6 mph - N/A   Clear
7:55 PM 51.8 °F - 48.2 °F 88% 30.03 in 10.0 mi SSW 4.6 mph - N/A   Clear
8:15 PM 51.8 °F - 48.2 °F 88% 30.04 in 10.0 mi SW 4.6 mph - N/A   Clear
8:35 PM 51.8 °F - 48.2 °F 88% 30.03 in 10.0 mi Calm Calm - N/A   Clear
8:55 PM 50.0 °F - 48.2 °F 94% 30.04 in 10.0 mi SW 4.6 mph - N/A   Clear
9:15 PM 51.8 °F - 50.0 °F 94% 30.04 in 10.0 mi SSW 4.6 mph - N/A   Clear
9:35 PM 48.2 °F - 46.4 °F 93% 30.04 in 10.0 mi Calm Calm - N/A   Clear
9:55 PM 48.2 °F - 46.4 °F 93% 30.04 in 10.0 mi Calm Calm - N/A   Clear
10:15 PM 48.2 °F - 48.2 °F 100% 30.05 in 10.0 mi Calm Calm - N/A   Scattered Clouds
10:35 PM 48.2 °F - 48.2 °F 100% 30.05 in 10.0 mi Calm Calm - N/A   Scattered Clouds
10:55 PM 48.2 °F - 48.2 °F 100% 30.05 in 10.0 mi Calm Calm - N/A   Clear
11:15 PM 46.4 °F - 46.4 °F 100% 30.05 in 10.0 mi Calm Calm - N/A   Clear
11:35 PM 48.2 °F - 48.2 °F 100% 30.06 in 10.0 mi Calm Calm - N/A   Clear
11:55 PM 46.4 °F - 46.4 °F 100% 30.06 in 7.0 mi Calm Calm - N/A   Clear